Lid_Strength_Index
3 3 3 3 3 3 2 2 2 2 2 2 1 2 3 3 4 5 8 4 0 -1 -1 1 1 2 2 4 4 4 9 11 10 10 9 6 7 5 4 5 5 4 4 3 2
3 3 3 3 3 3 2 2 2 2 2 2 2 1 1 3 5 8 1 -2 -1 -2 1 3 4 3 4 5 5 6 8 9 7 7 8 6 6 6 6 6 6 5 3 2 2
3 3 3 3 3 3 3 2 2 2 2 2 2 1 1 1 9 9 -2 -1 -1 -2 1 1 2 3 6 5 5 6 8 6 6 6 5 6 6 5 6 7 6 6 5 3 3
3 3 3 3 3 3 3 3 3 3 3 2 2 1 1 2 10 6 -1 -1 -1 -0 1 2 3 5 6 7 5 7 6 6 6 5 6 6 5 6 5 5 4 4 3 3 3
4 4 4 4 3 3 3 3 3 3 3 2 2 1 3 7 7 -0 -1 -1 -0 1 3 4 5 5 7 6 6 7 6 5 5 5 5 5 6 6 6 4 3 3 3 4 3
4 4 4 4 3 3 3 3 3 3 3 2 2 1 4 8 4 -0 -0 0 1 2 4 4 5 4 5 6 7 6 6 6 5 6 5 6 6 6 6 4 4 4 4 4 3
4 4 4 4 4 4 3 4 4 3 3 2 2 1 5 6 -0 -0 0 1 1 1 6 4 4 4 4 6 5 6 8 6 6 6 6 5 8 8 5 4 5 5 4 4 3
4 4 4 4 4 4 4 4 4 2 1 2 1 2 6 4 1 1 0 3 3 2 4 5 4 3 5 4 6 7 8 10 7 6 6 6 10 7 5 5 6 5 5 4 3
3 4 4 4 4 4 4 4 3 0 1 0 2 4 6 1 2 2 1 6 6 5 4 5 3 5 5 7 9 8 11 11 9 6 7 7 9 7 5 5 6 5 5 4 4
4 4 4 4 4 4 5 4 2 1 0 0 1 5 5 4 3 5 3 5 8 7 7 6 5 6 7 8 12 11 11 10 10 8 7 8 9 7 6 6 6 5 5 5 4
4 4 4 4 4 5 5 3 4 5 4 5 5 6 5 2 2 4 4 6 7 8 9 8 8 8 7 7 8 8 9 10 9 7 8 9 8 8 6 6 6 6 5 5 4
4 4 4 4 5 5 5 5 6 5 7 5 5 5 4 2 4 3 4 6 8 10 9 9 9 7 7 7 8 8 10 10 8 7 8 9 9 8 7 7 6 6 5 5 4
4 4 4 5 5 6 6 5 6 4 6 5 5 5 4 3 5 4 5 6 9 10 10 10 8 9 8 7 8 8 9 9 10 9 8 9 10 10 7 6 5 5 4 4 4
4 4 5 5 7 8 5 5 6 5 8 7 6 4 4 3 5 3 4 5 7 8 10 10 9 9 8 9 8 9 7 8 9 10 12 9 13 11 9 8 7 6 5 5 4
4 5 5 6 7 8 7 6 5 5 13 7 6 3 4 5 5 5 4 5 7 8 7 9 9 9 10 9 7 9 7 8 9 10 10 11 12 10 9 10 8 6 5 5 4
5 5 5 7 7 7 7 5 4 8 13 8 6 6 6 6 6 6 5 5 5 7 8 7 7 7 8 9 6 6 8 8 9 9 12 11 11 10 10 9 8 6 5 4 4
6 6 6 6 9 7 6 4 8 12 8 9 8 7 7 7 6 6 6 6 7 9 9 8 8 7 7 9 7 7 9 11 12 13 13 10 12 10 7 7 6 6 5 4 4
6 7 6 6 6 6 5 6 12 10 9 7 8 8 8 7 6 7 7 7 8 8 9 10 11 8 7 7 9 8 9 11 14 13 11 10 12 9 6 5 5 5 4 4 4
7 6 6 5 5 6 5 9 10 10 8 8 9 9 9 8 7 8 7 7 6 8 9 10 10 8 7 6 6 8 10 8 10 12 11 10 9 6 6 6 6 6 5 5 4
7 7 5 5 5 5 6 11 9 7 7 8 10 9 10 8 8 9 9 7 7 7 6 8 10 8 7 7 8 8 8 11 10 13 13 11 10 9 7 6 6 6 6 5 4
9 6 4 5 5 5 10 9 8 6 6 9 9 9 10 8 8 9 9 8 8 8 7 8 8 9 8 8 8 9 9 12 10 11 12 12 10 6 6 5 5 5 5 5 4
9 11 6 4 6 8 9 8 8 6 6 7 8 8 9 9 9 9 9 8 8 9 10 8 8 9 8 8 8 8 8 9 11 11 11 11 10 5 5 5 5 4 5 4 4
10 10 6 5 9 8 7 7 7 7 7 7 8 8 8 8 9 9 8 6 8 9 9 9 9 10 9 9 8 9 9 10 10 10 10 11 10 5 5 6 5 5 5 4 4
8 10 6 6 7 8 8 8 8 6 6 6 7 7 8 8 7 8 8 6 6 9 3 7 10 8 10 9 7 9 10 10 9 10 9 10 8 6 5 5 5 5 5 4 4
6 8 8 9 8 9 8 8 8 9 7 7 7 8 8 9 8 8 7 7 6 5 8 8 9 9 8 9 8 8 9 10 9 8 9 8 8 6 5 5 5 4 5 5 5
6 7 6 8 8 9 10 9 9 8 8 8 8 7 7 8 8 8 8 7 8 6 7 8 9 9 9 9 9 9 8 8 9 9 9 8 8 5 5 5 5 5 5 5 5
5 5 6 8 8 9 9 9 9 8 7 7 7 8 8 7 6 6 5 5 6 7 8 8 8 9 10 9 9 10 8 8 7 7 7 8 6 6 5 5 5 5 5 5 4